Location: Coopersdale
(40.3556°N, 78.9372°W)
Time: 09:47:39
(UTC+00:00)

Envisat - Pass Details

Date: 03 December 2020
Orbit: 764 x 766 km, 98.1° (Epoch: 15 January)

Event Time Altitude Azimuth Distance (km) Brightness Sun altitude
Rises 10:45:50 0° 18° (NNE) 3,241 6.3 -17.8°
Reaches altitude 10° 10:48:13 10° 23° (NNE) 2,310 5.6 -17.4°
Maximum altitude 10:53:10 51° 99° (E) 963 3.9 -16.5°
Drops below altitude 10° 10:58:04 10° 175° (S) 2,293 5.7 -15.6°
Sets 11:00:26 0° 181° (S) 3,214 6.4 -15.1°
